Location: �perlecques
(50.8057°N, 2.1521°E)
Time: 09:18:48
(UTC+00:00)

STARS - Pass Details

Date: 11 April 2023
Orbit: 616 x 630 km, 98.1° (Epoch: 02 June)

Event Time Altitude Azimuth Distance (km) Brightness Sun altitude
Rises 01:02:02 0° 360° (N) 2,925 ? -29.1°
Reaches altitude 10° 01:05:19 10° 333° (NNW) 2,015 ? -29.0°
Enters shadow 01:07:16 13° 306° (NW) 1,814 ? -28.9°
